Home > Weather > Kirkland Lake > Past weeks

Flag for Canada Past Weather in Kirkland Lake, Ontario, Canada — Yesterday and Last 2 Weeks

Now
43 °F

Clear.


Feels Like: 41 °F
Forecast: 39 / 69 °F
Wind: 3 mph from Northeast

Location: Earlton

Current Time: Jun 1, 2016 at 3:31:07 AM

Latest Report: Jun 1, 2016 at 3:00 AM


Visibility: 9 mi

Pressure: 30.23 "Hg

Humidity: 81%

Dew Point: 37 °F

Location of Kirkland LakeLocation

Past Weather in Kirkland Lake — Graph

°F

Kirkland Lake Temperature Yesterday

Maximum temperature yesterday: 63 °F (at 5:00 PM)
Minimum temperature yesterday: 43 °F (at 8:00 AM)
Average temperature yesterday: 52 °F

High & Low Weather Summary for the Past Weeks

 TemperatureHumidityPressure
High86 °F (May 24, 4:00 PM)100% (May 25, 7:00 AM)30.29 "Hg (May 25, 7:00 AM)
Low32 °F (May 17, 3:00 AM)20% (May 23, 3:00 PM)29.72 "Hg (May 30, 3:00 AM)
Average59 °F64%30.03 "Hg
* Reported May 17 2:00 AM — Jun 1 2:00 AM, Kirkland Lake, Weather by CustomWeather, © 2016

Note: Actual official high and low records may vary slightly from our data, if they occured in-between our weather recording intervals... More about our weather records

Advertising

Kirkland Lake Weather History for the Previous 24 Hours

Scroll right to see more
 ConditionsComfort  
Time TempWeatherWind HumidityBarometerVisibility
2:00 AM
Wed, Jun 1
45 °FClear.5 mph76%30.23 "Hg9 mi
1:00 AM45 °FClear.6 mph76%30.22 "Hg9 mi
12:00 AM48 °FClear.6 mph71%30.21 "Hg9 mi
11:00 PM
Tue, May 31
48 °FClear.5 mph71%30.20 "Hg9 mi
10:00 PM52 °FSunny.5 mph62%30.20 "Hg9 mi
9:00 PM54 °FSunny.3 mph54%30.17 "Hg9 mi
8:00 PM59 °FSunny.12 mph45%30.16 "Hg9 mi
7:00 PM61 °FSunny.9 mph42%30.16 "Hg9 mi
6:00 PM63 °FSunny.10 mph39%30.14 "Hg9 mi
5:00 PM63 °FSunny.13 mph42%30.14 "Hg9 mi
4:00 PM61 °FSunny.7 mph39%30.14 "Hg9 mi
3:00 PM59 °FSunny.14 mph51%30.13 "Hg9 mi
2:00 PM55 °FSunny.14 mph63%30.13 "Hg9 mi
1:00 PM52 °FScattered clouds.14 mph72%30.13 "Hg9 mi
12:00 PM48 °FOvercast.15 mph76%30.13 "Hg9 mi
11:00 AM45 °FOvercast.15 mph87%30.11 "Hg9 mi
10:00 AM45 °FOvercast.15 mph81%30.10 "Hg9 mi
9:00 AM43 °FOvercast.16 mph87%30.06 "Hg9 mi
8:00 AM43 °FMostly cloudy.24 mph87%30.03 "Hg9 mi
7:01 AM45 °FBroken clouds.18 mph87%29.98 "Hg9 mi
6:00 AM45 °FMostly cloudy.15 mph93%29.96 "Hg9 mi
5:02 AM46 °FOvercast.20 mph87%29.93 "Hg9 mi
4:53 AM46 °FMostly cloudy.15 mph93%29.93 "Hg9 mi
4:00 AM50 °FLight rain. Fog.15 mph88%29.90 "Hg5 mi
3:00 AM52 °FFog.13 mph88%29.88 "Hg6 mi
Weather by CustomWeather, © 2016

See weather overviewHow to use our weather pages